Wind_Speed
45 48 50 51 50 49 48 46 45 44 42 40 38 40 42 43 44 44 45 45 47 48 49 49 48 46 45 43 40 38 36 33 32 35 38 36 34 34 34 32 30 31 30 28 27 26 25 23 21 20 19 18 18 16 16 16 15 13 13 14 14 13 9 2 7 9 6 6 7 6 8 10 10 8 7 8 8 7 6 6 6 5 5 5 5 5 6 6
43 46 48 50 51 51 50 48 46 45 43 41 39 38 39 41 43 43 44 44 45 46 47 49 49 49 47 46 44 42 40 37 35 36 33 29 33 36 35 32 31 31 29 28 27 27 27 24 21 21 20 18 17 18 17 17 17 15 15 16 16 13 7 5 6 7 7 8 7 5 6 10 10 9 9 8 9 8 7 7 6 5 4 4 5 5 5 5
42 43 45 48 50 51 51 49 47 46 45 43 41 38 37 38 41 42 43 43 43 43 44 46 48 49 49 48 47 46 44 41 41 39 29 26 31 34 36 35 32 31 29 28 27 28 28 25 24 23 22 21 18 18 18 18 18 17 18 19 18 12 8 7 10 9 10 11 10 8 6 8 10 9 9 8 10 10 9 8 7 6 5 5 5 5 5 5
41 41 42 44 47 50 51 51 49 48 46 45 43 40 37 36 38 40 41 42 43 42 42 42 44 46 48 50 49 48 47 45 47 41 29 27 29 29 34 35 35 34 31 29 28 28 28 26 26 25 24 23 20 20 20 20 19 19 21 22 18 12 10 10 10 11 12 12 13 11 8 9 11 10 11 11 11 11 12 11 10 9 8 6 6 6 5 5
41 40 40 40 44 47 49 52 51 49 48 47 44 42 39 37 36 38 39 41 41 41 41 41 41 43 45 48 49 49 48 47 49 44 33 30 28 28 30 32 36 37 34 33 31 29 28 27 26 26 26 24 21 21 22 21 20 21 22 22 18 14 14 14 13 14 14 14 16 15 13 13 14 14 15 15 12 12 13 13 12 12 11 6 5 6 5 5
41 40 39 39 41 43 46 50 52 51 50 48 46 44 42 40 37 36 37 38 39 40 41 41 40 40 42 44 46 48 49 46 45 43 40 35 30 28 29 30 34 37 38 36 34 31 29 28 27 27 27 25 23 21 21 21 21 23 23 22 20 18 18 18 18 19 18 18 18 19 19 18 18 18 19 17 13 12 13 13 13 14 13 10 7 8 7 7
40 40 40 39 39 40 42 46 50 52 51 50 47 45 44 42 39 37 36 36 37 37 38 40 40 40 41 42 42 45 50 49 43 39 37 38 35 30 28 29 33 37 39 38 36 34 31 30 28 27 26 26 25 23 21 20 20 23 25 23 21 20 19 20 22 22 22 21 21 21 21 20 19 19 19 19 15 14 15 14 14 14 14 15 13 12 10 10
41 40 40 40 39 40 39 41 46 50 52 52 49 47 45 43 41 39 37 36 36 35 34 37 39 40 41 41 40 42 49 50 47 40 32 33 38 35 29 28 32 37 39 38 36 34 31 30 29 27 27 27 27 25 21 20 21 24 26 24 21 21 20 21 24 25 25 24 25 24 23 21 20 20 21 21 17 16 17 16 16 16 17 18 17 15 13 12
41 40 39 40 40 40 39 39 42 46 50 52 51 48 47 45 43 41 38 36 36 35 33 34 37 39 40 41 40 43 47 44 43 44 38 33 34 36 35 30 31 35 38 38 35 34 33 30 28 27 27 27 27 27 24 23 23 24 25 25 23 23 21 20 23 25 24 25 28 27 25 24 21 23 25 22 19 18 18 19 18 19 20 21 20 18 16 15
41 41 40 40 40 39 39 38 39 42 47 50 51 50 48 47 45 43 38 36 36 34 34 35 35 37 39 41 41 45 46 40 39 42 43 39 31 31 34 33 32 34 37 37 36 35 34 31 26 25 26 27 28 28 27 26 25 23 23 23 22 23 22 20 23 25 25 26 28 28 26 25 22 25 27 24 20 18 19 19 20 21 22 23 23 21 20 19
40 40 40 41 40 39 39 39 38 39 44 47 50 51 50 48 46 44 40 38 36 35 35 35 35 36 38 41 44 47 43 37 39 39 41 44 38 29 25 27 31 34 36 36 36 34 32 31 27 26 26 26 29 29 29 29 28 25 23 22 20 20 23 25 25 27 28 28 29 29 29 28 26 29 28 24 21 19 20 20 20 22 22 22 23 23 23 22
38 39 39 40 40 40 40 39 39 39 41 43 47 50 51 49 47 45 43 40 38 36 35 35 35 35 37 41 45 44 39 36 39 38 39 43 45 39 28 21 23 30 35 35 34 34 32 32 29 29 27 26 28 28 28 31 30 28 26 26 25 22 24 26 25 26 28 28 30 29 31 33 31 31 27 23 22 21 21 20 20 22 21 20 21 23 24 24
38 38 38 39 39 40 40 39 39 39 39 40 44 47 49 50 48 46 44 41 39 37 36 35 35 34 37 43 45 42 37 36 38 38 38 40 45 47 42 32 23 23 30 33 34 34 34 33 32 32 30 27 26 25 26 27 29 30 29 29 29 28 30 29 24 26 27 27 29 28 32 37 33 30 27 24 22 19 19 19 18 20 21 21 21 22 24 24
38 37 38 39 39 39 39 39 38 39 39 38 41 44 47 49 49 47 46 43 40 38 36 35 35 35 37 42 42 41 40 39 36 34 35 38 42 46 48 45 36 27 25 30 34 34 34 33 33 34 33 31 28 26 25 23 23 27 29 31 32 31 34 34 28 29 29 28 28 27 33 40 35 31 29 26 24 22 22 20 18 19 19 20 21 21 23 23
37 37 36 38 39 38 39 38 38 39 38 38 38 41 44 46 48 48 47 45 41 39 38 37 38 37 39 43 42 40 43 44 39 33 33 36 39 43 45 46 45 37 27 27 32 33 32 32 34 35 34 33 30 28 28 25 23 23 27 32 34 35 36 35 31 30 29 26 25 25 30 36 35 33 31 29 29 28 27 25 22 21 20 20 20 20 20 21
37 37 36 36 37 37 38 38 38 38 38 37 37 38 41 44 46 47 48 47 44 42 40 40 40 39 39 43 43 42 44 45 42 37 35 35 37 40 42 42 44 43 34 26 29 31 31 31 34 35 34 33 32 30 28 27 29 27 28 31 31 35 36 36 35 32 29 24 24 26 29 33 34 32 29 28 27 26 26 26 27 26 25 26 25 24 24 23
37 37 36 36 36 37 37 37 37 38 37 37 37 37 39 41 43 45 48 48 46 45 43 42 40 37 39 41 42 44 44 41 40 41 39 38 38 38 40 41 41 44 42 34 28 28 29 29 32 35 35 34 33 31 28 30 34 31 29 30 28 28 28 30 32 31 28 26 27 31 35 38 37 32 29 27 25 24 23 24 25 27 28 28 28 27 26 24
35 35 35 35 36 37 37 37 37 37 36 35 36 36 36 37 39 42 46 48 49 49 46 44 41 35 37 42 42 43 42 39 39 41 41 41 41 39 39 40 39 41 43 42 38 32 29 27 28 34 36 36 36 35 36 36 34 32 31 30 27 26 26 28 31 29 26 25 28 33 39 40 38 36 33 30 29 27 25 23 23 25 27 26 27 27 26 27
34 34 34 34 35 36 37 37 37 37 36 35 35 36 35 34 35 39 44 47 51 53 50 47 46 40 38 42 42 40 40 39 38 40 42 41 40 40 40 40 38 37 37 42 44 41 36 30 27 33 38 41 41 40 42 39 32 32 33 29 28 31 34 34 32 30 26 25 28 33 37 37 35 36 34 30 29 29 28 26 24 27 29 31 32 32 32 33
33 34 33 33 34 36 37 37 37 38 38 37 37 38 37 36 36 38 43 48 53 56 54 51 50 46 41 42 42 40 40 39 38 41 43 42 39 37 38 40 38 34 35 40 43 44 42 38 34 34 36 41 42 40 40 39 36 33 30 30 32 33 36 35 29 26 25 26 30 31 33 34 32 34 34 30 27 28 29 29 29 31 33 35 36 37 36 35
33 33 32 32 34 36 37 37 38 38 39 40 39 40 41 41 40 42 44 48 53 55 56 54 50 48 43 41 41 41 41 38 36 37 40 43 42 38 36 39 39 37 37 38 39 41 43 46 45 38 33 33 35 38 39 38 39 37 31 30 32 33 35 33 26 22 22 27 32 31 32 34 32 34 36 33 28 27 27 27 28 30 31 33 35 36 35 34
31 31 32 31 33 35 36 37 37 37 39 41 42 42 41 40 40 42 42 45 52 56 58 57 52 50 48 41 39 40 41 37 35 36 38 40 43 43 41 40 40 40 38 36 35 36 37 48 56 50 42 36 32 34 37 38 38 38 35 30 29 32 32 30 27 24 23 25 30 31 33 35 35 35 37 36 31 29 27 27 27 27 29 30 32 32 32 30
29 30 30 31 33 34 35 36 36 38 40 41 44 44 40 38 38 37 36 39 47 54 59 60 55 51 51 48 42 39 41 39 38 37 38 40 43 45 46 45 44 42 40 38 39 38 37 48 58 54 48 44 40 36 36 38 39 39 38 34 33 32 29 28 28 27 27 26 25 28 32 35 35 35 38 39 35 32 30 28 27 28 29 30 30 30 30 29
27 28 28 29 31 33 35 35 37 40 41 42 43 43 40 38 38 37 35 34 41 51 57 60 58 54 52 51 47 44 41 40 41 39 37 40 42 42 45 47 45 44 44 44 44 43 44 48 48 43 41 43 42 39 36 36 39 40 40 41 41 38 33 31 28 27 30 30 26 23 28 35 37 35 37 36 34 33 31 30 30 30 30 29 29 30 30 31
26 26 27 28 30 32 34 36 40 41 41 42 42 42 40 38 38 38 36 32 33 43 53 57 58 57 54 48 46 47 44 40 42 41 37 38 40 40 41 42 42 44 46 46 42 42 45 45 41 37 38 39 39 38 37 36 39 40 41 43 43 40 37 34 31 26 24 25 25 19 16 22 27 31 35 35 33 32 27 25 24 21 21 22 23 25 25 25
26 26 26 28 29 32 34 37 40 39 41 43 41 41 41 39 37 36 36 32 29 35 45 53 57 57 58 52 43 42 43 44 43 42 40 37 37 39 39 39 39 41 44 43 37 37 41 41 40 37 36 36 36 37 37 37 38 36 39 42 39 38 36 32 29 24 19 18 18 16 12 13 17 19 21 22 27 28 22 19 19 19 21 23 26 26 26 26
27 27 27 28 29 33 36 37 37 38 42 42 41 41 40 39 37 35 32 23 24 36 41 47 55 56 60 59 50 41 38 43 44 43 43 41 38 39 39 39 38 39 42 39 36 38 41 40 40 38 37 37 38 39 37 37 37 33 34 37 35 37 37 33 29 24 22 20 15 15 15 18 22 22 19 19 24 28 27 28 29 30 31 32 33 32 33 33
28 28 28 28 29 33 36 35 35 37 40 40 40 40 40 40 38 35 27 9 11 34 41 45 54 56 58 60 57 49 36 37 45 45 43 42 41 42 42 44 43 42 42 40 41 43 43 44 43 41 40 39 39 39 36 33 34 33 32 31 31 33 35 35 31 26 23 18 16 20 17 13 19 22 23 22 25 29 33 35 34 31 29 27 27 27 27 23
29 29 29 29 30 32 34 33 33 35 36 38 38 38 40 39 36 33 23 9 11 27 36 45 53 56 59 58 57 57 43 33 40 44 43 42 43 44 44 45 46 42 41 41 41 41 40 41 40 40 42 40 37 34 33 33 35 36 31 25 24 26 27 27 25 25 22 15 19 25 21 13 14 19 22 21 22 25 27 29 28 25 22 20 20 22 19 10
30 30 30 30 32 33 33 33 33 32 33 35 35 37 39 37 38 30 13 11 21 26 29 39 51 59 61 57 54 59 55 41 35 38 43 44 43 45 43 43 44 41 39 39 39 39 38 34 33 36 38 38 35 31 29 31 35 38 33 24 22 23 24 19 17 21 17 12 26 32 26 19 10 10 14 14 15 16 16 18 21 20 19 20 22 23 19 12
31 31 31 32 34 33 34 33 33 32 31 34 36 38 39 38 40 26 8 17 26 26 30 36 46 59 62 61 56 56 58 53 42 37 41 44 45 46 44 41 42 39 37 38 37 38 38 33 33 36 35 34 35 33 29 27 30 33 29 23 17 14 15 11 10 15 9 8 23 26 24 23 15 10 9 8 11 13 13 13 12 14 18 20 19 17 14 13
32 32 32 33 33 32 33 31 31 32 32 36 38 39 41 37 33 23 16 24 21 20 34 38 42 55 60 62 61 57 58 57 51 43 41 45 47 50 48 46 45 38 35 40 40 38 42 41 38 36 35 37 38 37 31 27 30 30 27 22 12 4 4 5 4 6 4 8 17 17 15 18 22 28 28 24 26 24 22 19 16 18 21 19 15 12 12 13
33 33 33 34 34 33 33 29 29 32 34 37 36 40 44 29 20 26 30 28 15 13 32 39 41 50 56 59 61 58 57 56 56 50 43 43 47 51 51 49 49 40 34 41 42 36 33 35 38 37 36 39 42 43 40 37 39 40 40 35 21 7 2 2 2 0 1 8 16 15 12 10 16 29 32 26 22 18 17 14 14 18 17 13 14 15 17 17
34 34 34 34 34 34 33 29 30 33 35 36 34 39 42 23 16 32 40 33 18 13 28 38 40 45 51 57 61 60 54 50 56 56 46 43 46 50 51 49 49 45 36 36 39 35 25 22 33 41 40 41 46 48 47 44 42 42 43 40 31 18 7 3 4 3 3 6 10 10 8 7 8 11 13 9 6 6 12 13 14 18 15 12 17 22 23 19
35 36 35 35 35 35 33 31 31 34 36 36 35 38 39 26 23 34 42 42 31 18 22 34 40 42 47 53 56 61 59 49 51 54 48 47 48 48 52 52 50 49 42 33 32 36 31 23 29 39 41 42 45 46 46 42 35 33 34 34 32 28 21 11 6 8 7 4 6 9 8 9 10 9 8 6 3 6 14 16 18 16 14 15 19 22 22 18
37 38 37 38 38 35 34 33 33 36 37 36 38 40 40 36 33 33 36 44 44 31 22 30 40 42 44 48 49 55 59 50 47 49 45 47 50 47 49 51 51 52 50 40 32 33 31 25 29 35 35 39 40 39 42 40 31 28 31 33 32 30 28 18 7 8 8 3 8 13 15 19 20 23 26 23 20 18 13 8 7 5 6 11 12 12 14 15
41 40 40 39 39 35 34 34 36 38 38 38 40 40 40 42 40 35 33 37 45 45 33 26 36 44 42 43 47 51 53 48 45 45 42 42 46 48 48 47 49 52 51 44 37 36 32 26 31 36 33 36 34 28 32 37 33 29 29 33 30 23 25 21 7 4 6 4 10 18 25 25 20 26 40 41 37 29 12 3 4 5 4 4 6 9 9 11
42 41 41 40 39 36 34 35 38 39 37 38 41 39 38 41 42 41 37 34 38 46 44 30 26 42 46 41 44 52 52 49 46 44 41 38 39 47 53 50 48 51 52 46 38 38 35 23 23 34 34 31 29 26 29 34 36 33 28 28 26 17 17 23 13 5 7 4 4 11 21 24 25 33 44 45 39 29 20 14 13 19 17 12 11 11 9 11
41 40 41 41 38 36 37 37 37 38 37 39 42 40 37 38 42 44 41 37 35 38 46 41 26 30 44 43 43 50 52 52 51 47 42 39 38 45 53 54 52 51 52 51 43 39 39 26 18 29 33 27 29 34 38 38 36 35 29 27 30 24 19 26 25 15 9 5 3 6 8 15 31 42 43 41 38 31 29 30 28 27 26 24 20 15 13 15
42 41 42 42 39 37 38 36 35 37 37 40 42 41 39 36 40 45 43 39 38 35 41 46 36 26 36 43 44 47 51 52 53 50 44 42 42 43 48 53 56 55 51 52 48 41 38 32 23 25 28 30 35 39 43 44 41 39 35 33 36 31 20 18 24 22 11 3 2 3 2 14 31 37 31 30 29 23 21 21 18 16 20 24 22 19 19 18
43 41 41 40 39 38 37 35 35 37 37 39 41 42 42 39 37 43 45 41 39 38 38 43 45 38 33 39 44 46 49 51 50 48 46 44 43 42 45 50 55 57 53 51 51 44 39 37 31 28 31 35 39 40 43 45 44 44 44 43 43 39 27 12 10 20 21 11 8 6 5 20 32 28 23 22 18 12 9 5 6 10 15 19 19 20 21 21
44 43 41 38 39 39 37 36 36 36 37 39 41 41 41 42 40 41 45 42 39 40 39 41 48 46 36 36 44 46 48 50 49 48 45 47 48 47 48 51 53 56 56 55 56 52 44 38 33 30 35 37 34 36 38 39 41 44 44 44 43 41 37 24 11 20 28 22 17 11 6 23 36 28 23 22 14 10 12 10 6 7 12 17 19 21 22 22
44 43 40 36 37 38 38 37 36 36 38 39 40 41 40 40 41 41 43 42 41 41 41 43 44 42 40 36 39 45 48 46 48 51 47 47 51 49 47 49 51 53 56 57 57 52 43 37 32 27 29 35 32 32 36 36 37 41 41 43 42 40 42 36 24 26 31 28 23 11 5 24 36 27 24 25 18 15 17 18 15 12 15 18 20 23 23 23
43 42 39 35 36 37 39 40 38 37 40 39 38 41 42 39 37 39 41 43 43 42 43 47 45 38 37 36 34 42 46 41 42 50 48 45 49 49 44 43 45 48 54 56 56 54 42 35 34 23 12 19 22 21 26 32 36 41 42 43 44 43 43 38 31 28 25 29 32 15 6 24 28 18 21 25 23 23 22 24 26 24 22 22 22 24 24 23
43 41 39 36 35 38 40 41 39 39 41 41 39 40 43 43 39 38 39 41 43 43 43 49 50 44 38 33 33 40 45 41 39 44 47 44 44 49 47 42 41 44 48 49 52 55 45 36 38 29 13 11 17 20 30 40 43 44 45 46 46 46 47 42 34 26 18 24 34 22 14 24 22 15 19 19 18 22 23 26 31 31 28 27 27 26 25 25
44 40 36 34 34 37 39 39 39 40 40 40 39 39 41 43 43 40 38 39 42 43 43 46 48 47 43 35 33 40 45 43 39 40 45 45 41 44 48 46 44 43 44 48 52 54 48 41 43 42 34 33 33 33 41 47 47 44 44 47 48 47 48 42 32 27 23 24 30 30 28 28 23 20 23 20 17 18 19 21 26 30 29 27 27 26 25 26
42 39 35 33 33 34 37 39 39 41 41 40 40 41 41 42 41 39 38 39 41 41 41 44 44 45 48 42 34 38 46 46 43 41 44 48 44 41 44 47 45 42 43 50 55 53 49 45 47 49 46 43 37 32 35 42 47 48 48 49 49 46 46 43 36 35 35 27 23 30 36 32 27 23 22 23 23 23 22 21 22 26 28 26 26 27 27 28
37 36 35 32 30 33 38 41 41 42 42 41 41 41 41 42 41 39 38 38 41 42 40 42 43 46 51 46 37 37 43 44 45 41 38 45 46 40 41 44 43 42 43 48 52 52 47 44 47 50 46 42 36 29 29 36 44 48 48 48 49 47 46 47 45 45 42 32 26 31 37 36 30 23 19 20 23 25 26 25 26 28 30 30 30 30 32 33
35 34 35 33 29 30 34 36 39 43 44 42 41 41 41 40 40 40 38 37 40 43 43 43 45 48 52 48 39 39 42 40 44 44 38 40 43 41 42 44 44 45 45 46 49 50 47 43 43 43 42 41 38 30 24 27 37 44 45 45 47 48 48 48 47 45 42 39 37 34 35 36 31 24 22 22 24 26 27 27 29 31 31 31 30 31 32 32
35 35 35 35 34 32 31 33 37 41 43 42 42 42 43 42 40 40 39 39 40 42 44 46 46 47 50 45 35 38 49 48 45 44 41 37 38 41 44 46 46 46 46 47 48 48 46 43 42 40 38 38 38 32 26 25 31 37 40 41 43 45 46 46 45 44 43 44 42 38 38 40 33 28 28 26 26 28 28 28 30 31 31 30 29 30 31 32
35 35 33 34 36 34 29 30 35 39 42 43 43 43 43 43 42 40 40 42 42 39 41 45 46 47 49 46 38 36 46 52 50 44 38 34 35 38 42 47 49 49 49 49 49 49 47 42 40 38 32 30 32 28 25 27 28 32 38 41 42 42 43 43 43 42 43 43 42 42 43 40 33 30 30 26 25 27 28 29 30 29 30 30 30 31 33 34
33 34 31 30 33 34 29 27 33 39 42 44 44 44 43 41 40 38 37 41 42 39 38 39 40 43 45 45 43 38 35 39 45 44 38 36 38 40 42 45 47 48 51 52 49 49 49 42 37 36 29 27 29 25 22 24 22 25 35 40 39 40 41 41 42 41 40 42 43 43 41 35 30 30 29 25 24 26 28 28 30 30 30 31 33 35 36 37
Wind_Direction
233 233 232 231 230 227 224 223 222 222 223 223 224 224 223 221 221 222 222 223 222 223 223 222 222 223 223 224 225 225 225 226 227 228 227 225 225 228 231 234 235 233 233 233 231 231 233 235 237 240 242 244 245 244 247 250 251 250 247 244 241 236 221 222 335 324 299 232 213 230 246 256 263 264 267 271 272 279 290 293 299 316 325 314 319 323 319 315
234 233 233 232 230 229 227 223 221 221 221 221 221 222 222 220 220 221 221 222 222 222 223 222 222 223 224 224 225 226 227 227 227 228 226 223 224 226 228 231 234 234 233 234 232 231 231 233 235 237 238 240 241 242 243 246 249 248 250 248 243 236 207 211 283 309 284 241 222 219 237 259 265 263 267 270 270 272 277 283 290 298 309 308 310 308 306 310
234 234 234 233 231 229 229 226 222 221 220 220 220 220 219 218 218 219 220 220 221 221 222 223 223 223 224 225 226 227 229 231 231 229 223 222 225 226 228 229 232 235 234 234 233 232 231 232 234 235 236 236 236 239 239 242 245 247 250 249 247 238 208 238 268 280 275 260 249 234 221 255 263 263 270 274 273 275 270 263 272 278 278 287 293 288 289 295
232 234 234 234 233 230 229 229 225 222 219 219 219 219 218 217 216 217 219 219 219 220 221 222 223 224 225 225 226 228 231 234 235 230 221 224 227 226 227 228 230 234 235 234 233 232 231 231 233 235 236 236 235 236 236 237 242 247 248 248 251 239 216 240 256 259 268 263 254 244 225 244 260 268 275 274 272 273 267 260 261 262 263 272 277 273 278 291
231 232 232 233 234 232 230 229 228 225 220 219 218 218 218 216 214 215 217 218 218 218 219 220 221 223 225 226 226 227 230 235 238 231 222 224 228 227 227 226 228 232 233 233 231 230 229 229 232 235 235 235 234 235 236 236 240 245 246 248 251 236 221 235 243 247 259 262 258 251 243 252 266 275 278 275 267 264 264 267 269 267 269 267 260 269 276 287
231 231 231 232 232 233 232 229 228 227 224 220 218 217 218 217 214 213 214 216 217 217 217 218 219 221 224 226 226 227 229 232 238 235 227 226 228 229 227 226 227 229 231 232 231 229 228 229 230 233 236 236 235 238 240 238 239 244 245 246 250 241 229 234 244 249 250 255 259 257 254 260 269 275 277 274 263 256 257 260 266 271 276 272 259 268 278 283
231 230 230 231 231 231 232 231 229 228 227 224 220 216 216 216 214 212 212 213 214 215 216 216 217 219 222 224 225 227 228 228 232 235 231 227 227 229 229 227 226 228 230 232 232 230 228 230 231 232 236 237 237 238 241 239 237 242 245 244 248 247 241 239 245 253 253 253 256 258 259 259 264 271 272 270 261 251 250 251 255 260 267 271 271 272 275 277
230 230 230 230 231 231 231 231 230 228 227 227 223 218 216 216 214 212 211 211 212 212 214 215 215 217 220 222 223 226 228 227 228 231 231 228 226 228 231 230 228 227 229 231 232 230 228 230 231 232 234 236 238 237 239 242 240 241 245 246 248 249 248 247 247 252 256 257 256 257 260 259 263 270 268 266 263 254 251 249 249 253 259 265 269 272 275 274
230 229 230 230 230 230 230 230 231 229 227 227 226 222 218 215 215 213 211 212 212 211 213 215 214 215 219 221 222 226 229 226 227 228 229 229 228 228 230 233 232 230 229 229 230 229 226 226 228 231 235 236 238 238 236 241 243 244 248 250 253 255 253 252 251 252 256 258 258 258 259 259 264 270 268 264 263 260 257 253 250 252 258 262 265 269 272 271
229 228 228 229 229 228 229 230 230 230 228 227 227 226 221 217 215 212 210 212 213 212 213 215 214 214 217 219 220 226 229 225 225 226 226 227 226 227 228 231 234 232 230 228 228 229 227 225 224 228 234 235 237 239 235 236 241 245 249 251 254 256 253 246 245 251 255 256 258 260 261 262 264 265 264 264 266 265 264 262 258 255 254 258 264 268 269 269
227 227 227 228 229 228 228 229 229 229 228 228 227 227 225 220 216 213 210 210 212 213 213 214 214 214 217 219 220 225 227 223 224 225 223 223 222 222 224 228 231 230 228 227 227 228 228 224 221 224 229 233 235 238 238 237 239 241 244 247 247 249 249 245 244 249 254 256 259 262 264 265 263 260 262 267 272 273 272 270 268 263 259 258 262 267 268 268
226 227 226 226 228 228 227 228 229 229 228 228 227 226 225 223 218 214 212 209 209 212 214 215 215 216 218 220 221 223 224 222 225 225 221 221 222 222 221 224 231 231 227 225 225 227 227 223 220 222 225 229 233 236 240 240 239 240 241 242 243 244 247 248 248 248 251 255 260 264 268 265 261 261 265 272 274 276 275 273 271 268 265 261 260 261 265 267
227 226 225 224 225 226 226 227 228 228 227 227 227 226 225 224 221 216 213 211 209 209 213 216 217 217 221 223 222 221 222 222 224 225 221 220 223 224 223 225 229 233 229 225 224 225 226 224 220 222 224 226 228 229 236 240 240 239 239 242 244 244 245 245 245 249 252 255 259 265 269 266 262 264 269 273 273 271 269 270 270 270 267 263 259 258 260 263
226 226 224 223 223 223 224 225 226 227 227 227 227 226 226 224 222 218 215 212 209 208 211 215 217 219 223 226 224 220 220 221 221 223 222 220 222 224 226 226 227 231 232 226 223 222 225 225 223 223 224 227 228 229 232 236 239 238 237 240 242 244 248 248 247 251 254 256 261 266 269 268 266 266 269 271 272 269 266 266 265 266 267 266 264 262 262 263
223 223 223 223 223 222 223 224 224 224 225 225 225 225 225 224 223 220 217 213 208 208 211 214 216 218 222 226 225 221 220 220 219 218 221 221 222 224 226 227 227 228 230 226 220 219 222 225 225 225 225 227 228 230 232 233 236 237 235 236 237 241 248 252 251 250 252 258 265 264 265 269 269 266 268 270 269 269 268 267 266 266 268 268 268 267 266 266
225 223 221 222 222 222 223 222 222 222 222 224 224 224 224 224 223 220 218 214 209 209 211 215 217 219 224 225 225 223 221 221 219 216 219 221 221 223 226 227 227 225 224 224 218 214 219 224 225 225 226 228 227 228 232 235 236 233 232 235 236 239 246 252 252 251 253 258 262 259 260 267 270 270 271 272 269 268 266 264 265 267 268 271 273 274 274 274
227 223 221 221 221 221 221 220 220 220 220 222 222 222 223 223 223 220 218 215 211 210 213 215 215 221 229 227 224 225 224 222 220 217 218 221 220 221 224 226 226 225 223 224 221 216 219 225 224 223 224 226 227 228 229 231 230 226 228 235 237 239 244 252 256 258 259 258 256 258 261 265 269 271 270 270 271 268 265 262 261 263 267 272 275 276 277 280
227 223 221 220 219 220 220 218 217 217 218 219 220 221 221 222 223 221 218 215 212 213 217 217 212 218 230 227 223 226 226 224 223 220 218 221 223 221 221 225 227 227 226 227 229 224 222 229 229 225 224 224 225 224 223 226 226 223 226 232 236 240 243 249 256 261 263 261 257 257 261 265 270 272 269 268 268 268 268 266 264 265 268 270 271 272 276 280
226 223 221 219 218 218 220 218 215 214 214 216 217 217 218 219 221 222 218 214 212 212 215 215 210 211 222 224 222 225 226 224 225 223 219 219 224 225 222 224 226 227 227 228 230 228 225 228 227 224 223 222 222 223 226 228 229 231 233 236 240 245 248 250 254 259 264 264 259 256 260 267 272 273 273 270 264 260 260 260 258 261 265 267 269 271 275 277
225 223 221 220 219 218 219 218 215 213 212 212 213 213 213 213 216 219 218 215 212 212 212 211 210 210 217 223 221 220 222 222 221 221 220 217 219 225 225 225 226 227 228 228 230 231 227 227 228 225 223 223 224 227 231 234 235 238 241 244 245 247 251 253 254 256 258 260 260 260 264 268 270 271 272 272 267 259 254 253 252 256 261 264 268 271 273 276
223 222 220 220 220 218 218 217 216 213 211 212 211 211 211 210 213 216 216 215 213 212 213 212 213 212 213 223 224 220 221 221 220 220 221 219 217 220 221 222 224 225 227 227 230 233 232 231 229 224 223 227 230 231 233 235 237 237 239 244 245 244 249 253 251 244 243 251 257 260 262 263 264 267 269 269 267 262 257 257 257 258 260 263 266 268 271 276
220 219 218 219 219 218 216 215 214 213 212 213 212 211 211 211 215 217 217 219 215 213 214 215 216 214 211 218 224 224 223 221 220 218 218 219 218 219 221 220 220 223 225 223 225 228 232 236 234 231 235 238 240 240 237 237 239 238 236 238 239 238 243 247 244 237 234 245 255 254 255 259 260 262 264 264 262 262 262 262 262 262 263 264 267 270 275 279
217 216 216 217 217 217 216 213 212 212 213 213 212 211 209 209 214 217 219 223 220 215 214 214 216 214 211 215 220 223 226 222 219 218 216 216 218 221 223 222 220 222 224 223 222 220 224 236 238 238 242 242 243 245 243 240 242 241 236 235 238 236 238 241 241 240 238 243 252 251 248 252 254 256 259 261 262 263 265 265 265 268 271 271 273 277 279 280
215 215 214 214 214 215 214 212 212 212 213 214 213 210 208 208 211 213 217 225 225 220 216 214 215 214 211 215 219 222 226 225 221 220 216 214 216 218 223 226 224 223 225 227 226 225 229 237 240 240 241 239 240 241 241 242 243 244 240 237 240 240 240 245 248 249 246 244 246 252 256 255 251 250 252 256 261 264 267 269 272 274 275 276 275 274 274 274
212 213 212 210 211 212 211 212 213 212 212 213 211 207 207 208 209 210 215 223 229 225 220 217 217 215 211 214 219 221 225 225 223 222 219 217 215 216 221 224 224 223 226 227 225 227 232 237 239 238 234 231 230 231 236 240 241 243 243 241 242 243 243 246 247 248 247 246 244 246 261 264 255 252 251 252 257 262 265 266 267 269 272 275 275 275 275 273
211 210 208 208 209 209 210 213 213 211 212 213 209 206 207 208 208 209 212 223 237 230 220 218 219 215 210 212 215 218 223 224 222 221 221 219 216 217 219 220 221 224 227 223 219 222 227 230 232 229 228 227 224 227 235 237 234 236 241 242 240 239 241 241 238 235 235 240 241 235 246 269 267 258 249 245 250 255 256 257 263 273 279 282 284 284 283 281
211 209 206 205 207 209 210 213 212 209 211 212 207 205 207 206 207 208 208 222 240 230 218 215 216 213 209 211 212 210 217 221 217 217 218 215 214 216 218 219 219 221 223 218 215 222 224 223 224 223 226 228 225 227 231 231 228 231 238 241 239 236 237 238 233 226 229 239 238 223 235 266 269 258 245 242 251 256 259 267 274 280 284 286 286 284 284 286
210 208 205 205 206 210 212 213 211 209 211 210 206 205 205 205 205 206 207 207 225 222 220 214 212 211 210 213 214 211 214 217 215 215 214 213 214 215 216 219 222 222 221 214 212 222 226 222 221 220 221 225 226 228 231 228 224 226 233 235 234 233 234 236 234 226 226 239 244 227 224 257 269 261 259 261 265 267 270 276 281 283 286 287 286 287 288 287
210 207 205 205 206 209 212 214 211 210 211 208 206 206 204 204 204 204 210 209 195 210 216 213 209 209 212 214 216 216 214 215 218 217 213 211 213 215 216 218 223 224 223 220 217 220 226 226 226 224 221 222 226 229 233 232 222 221 226 222 214 215 219 225 229 226 219 227 244 234 223 238 266 266 266 265 266 275 282 285 289 291 291 290 289 295 298 288
210 208 205 205 207 208 209 211 209 208 209 206 205 204 202 203 202 201 215 215 205 208 207 206 207 207 210 213 215 217 215 214 217 215 213 212 210 213 217 218 221 220 218 222 222 221 225 227 226 227 224 224 228 229 229 226 218 215 215 206 195 194 198 201 206 208 202 221 242 239 233 236 259 277 265 261 268 286 297 293 295 297 298 300 299 301 299 283
209 208 207 206 208 209 207 208 206 202 203 204 204 202 200 202 201 201 213 202 207 215 202 198 204 207 209 211 212 215 215 216 216 212 211 211 208 209 211 212 213 211 209 212 216 219 225 224 220 223 223 222 221 217 213 209 207 205 195 190 193 189 194 202 203 202 192 228 238 240 241 234 231 244 244 259 280 289 291 285 285 287 296 305 304 298 285 269
210 208 208 209 210 210 209 208 204 200 200 202 203 201 197 199 205 206 203 200 208 216 202 196 200 206 210 211 211 213 213 214 216 215 214 210 208 208 206 206 205 199 197 204 208 215 222 225 224 224 222 216 212 211 214 217 218 215 205 204 215 214 216 221 207 210 213 233 232 237 243 229 237 255 260 267 275 276 276 272 265 269 282 292 289 274 249 250
210 209 208 210 211 210 209 206 201 202 202 201 202 202 198 199 211 208 199 198 200 199 201 201 201 205 209 208 209 212 212 214 215 215 216 213 211 209 208 210 208 200 194 198 201 204 214 224 224 221 218 215 214 214 215 216 219 222 221 221 216 191 158 192 190 330 237 235 234 236 243 233 247 266 271 269 269 271 274 276 276 275 273 266 261 253 246 257
210 209 208 209 210 210 208 203 200 203 204 203 202 200 199 203 212 208 205 203 201 200 202 203 202 203 207 207 208 209 209 212 214 214 213 210 208 208 207 209 209 207 200 194 193 193 196 208 213 215 218 217 217 219 219 221 223 225 227 225 218 207 198 187 187 176 175 225 225 209 215 217 218 252 266 255 237 275 295 290 287 287 277 253 242 242 250 259
210 209 208 209 210 210 206 201 200 204 204 203 201 198 199 203 203 207 211 207 209 222 205 199 203 200 201 206 208 209 208 209 211 212 211 208 205 205 206 208 208 208 205 195 189 194 200 204 211 218 224 223 221 220 222 227 228 229 228 222 219 219 222 226 219 199 179 186 217 199 206 229 229 226 219 203 214 315 314 285 269 278 275 254 243 243 250 251
209 208 208 208 209 209 205 199 200 206 207 203 203 203 204 206 204 207 213 209 211 221 210 197 199 196 195 200 204 208 209 208 209 209 207 209 209 208 208 209 210 209 207 201 193 195 202 211 217 218 220 225 227 224 223 224 222 219 212 208 214 220 219 219 219 197 176 184 240 228 233 242 248 254 251 249 261 284 305 280 252 279 268 254 259 265 261 254
208 207 206 208 208 207 204 201 201 205 208 205 205 208 209 210 209 209 213 213 213 218 222 215 199 193 194 195 198 204 205 205 210 208 204 207 211 214 214 213 213 212 209 206 201 201 202 206 217 219 219 222 225 227 227 227 224 214 206 208 213 213 213 213 201 152 168 227 247 233 240 241 238 256 262 261 266 272 266 145 76 350 311 283 292 296 277 255
208 208 207 208 207 205 204 203 205 206 206 206 209 212 212 211 211 211 214 217 217 216 223 234 213 195 196 194 195 202 201 201 207 207 203 204 212 219 218 216 215 214 213 209 205 209 208 200 209 220 224 221 215 214 215 217 221 220 221 223 215 199 202 205 194 171 187 208 251 229 239 242 236 250 263 265 265 261 243 233 269 281 277 283 290 283 262 246
207 207 210 209 205 204 204 204 205 206 205 207 212 215 215 214 214 213 213 217 220 219 221 232 232 201 197 199 198 200 200 202 205 205 205 204 209 218 219 217 217 216 215 212 209 212 213 207 202 212 218 214 204 205 206 204 209 215 222 225 218 213 211 201 197 202 200 189 226 221 216 236 247 256 265 268 265 258 250 255 266 270 264 264 268 255 241 253
203 205 210 210 205 203 204 205 207 208 208 209 212 214 215 216 216 214 214 217 220 222 223 228 234 221 203 203 205 202 201 205 206 205 208 207 208 214 217 217 217 216 214 211 211 212 212 213 209 202 206 205 200 204 210 208 203 203 206 207 209 210 208 203 205 206 202 165 198 236 225 242 255 264 267 268 269 263 258 263 265 259 249 247 247 237 233 248
201 204 209 208 205 204 202 203 206 208 212 215 215 217 218 219 218 213 214 219 219 221 225 225 229 232 215 202 207 207 202 204 207 206 208 209 210 212 215 217 218 217 210 203 206 209 209 212 209 195 195 202 208 216 220 217 212 210 209 207 208 205 195 187 201 203 206 211 204 202 245 251 255 264 265 266 270 255 230 233 247 239 234 234 230 224 226 233
199 203 208 205 204 205 201 203 206 206 210 216 217 219 221 223 223 218 214 216 217 220 223 223 227 236 235 213 207 208 204 203 205 207 209 211 212 216 218 218 217 216 210 204 206 208 208 210 205 195 199 205 212 218 216 217 221 222 219 215 213 207 199 194 191 197 204 212 217 209 235 253 252 255 261 264 258 219 195 195 220 225 219 217 208 207 213 218
198 201 205 203 204 206 202 203 207 207 210 217 219 219 220 220 221 221 218 216 219 221 222 224 227 238 248 235 210 203 204 204 205 208 210 212 215 219 221 218 213 211 209 206 203 201 203 206 198 190 201 206 209 215 214 216 220 218 217 217 217 215 211 208 207 205 202 203 211 206 218 249 250 250 254 255 242 217 206 210 226 234 225 217 208 208 211 214
196 200 203 203 205 206 205 205 206 207 211 217 220 220 222 224 223 223 222 220 222 223 223 227 230 235 246 244 224 206 202 203 206 208 209 212 215 218 220 219 216 212 210 208 204 200 200 201 192 179 182 199 204 213 211 209 214 217 220 221 221 220 215 211 210 210 205 203 207 202 217 242 248 247 242 245 240 231 224 221 228 238 238 230 222 221 224 229
192 198 200 201 204 206 209 211 210 210 212 215 218 219 222 226 227 225 225 223 224 226 227 230 232 236 242 244 236 219 206 201 204 206 207 210 215 217 217 218 219 219 219 216 212 208 204 200 194 186 175 186 195 201 203 204 209 216 220 220 218 216 211 207 203 198 195 204 208 206 219 233 238 230 228 237 238 234 230 226 228 234 237 234 230 231 235 242
188 191 191 193 200 205 209 213 214 215 215 215 216 218 220 224 226 226 227 226 224 227 231 232 233 237 240 240 237 226 213 206 205 208 209 208 211 216 217 216 217 221 222 215 212 212 210 208 207 204 203 206 207 208 209 208 205 206 212 213 212 212 210 205 197 193 197 203 207 212 220 228 231 227 228 233 231 231 233 228 225 226 229 230 229 232 240 248
189 190 189 187 194 202 208 212 214 217 219 218 217 217 218 221 225 226 226 227 226 227 231 233 234 235 234 237 240 224 211 208 210 212 213 210 210 214 217 217 216 218 218 212 211 213 212 210 212 213 213 215 216 216 214 212 210 210 212 211 208 207 207 204 202 207 207 201 207 217 219 225 232 230 231 235 235 236 237 233 229 225 226 230 234 240 250 259
191 193 195 194 195 199 205 210 212 214 217 219 219 220 221 222 225 226 224 225 226 227 230 232 235 234 231 236 242 221 203 201 206 209 210 208 209 210 209 209 209 210 211 210 210 214 214 213 214 216 216 215 215 218 216 212 214 216 212 208 205 203 204 206 210 214 211 207 218 224 221 227 234 233 236 241 242 242 239 238 239 236 236 240 246 254 261 266
193 195 198 201 205 208 209 211 211 211 214 217 217 219 221 222 225 226 224 225 226 226 229 232 234 234 233 238 240 224 209 201 199 204 207 205 207 209 205 201 199 201 204 207 209 211 215 219 219 219 219 217 215 219 219 212 211 211 211 210 207 205 206 210 214 217 216 219 227 231 230 233 237 240 245 247 249 249 244 241 244 249 252 257 262 267 269 271
196 198 200 202 209 215 215 214 211 211 214 216 216 219 222 223 226 226 225 225 225 224 227 231 234 234 233 238 241 227 220 217 209 206 207 204 203 206 207 204 200 197 199 204 207 208 211 217 219 217 216 216 218 224 228 223 213 209 210 211 208 205 206 210 215 218 219 223 230 233 234 237 239 244 248 248 246 247 247 246 249 257 266 272 275 275 277 282
200 203 205 204 206 209 211 212 211 210 212 215 218 220 222 224 226 226 227 227 226 225 227 232 235 232 231 239 246 231 221 224 226 223 222 222 220 214 212 212 208 200 197 200 205 206 206 210 213 209 206 209 213 217 221 219 215 212 211 209 206 204 206 210 216 219 220 224 228 227 230 239 247 248 247 246 242 241 246 253 261 269 275 278 280 280 283 286
202 206 209 209 209 211 213 213 210 210 213 217 219 220 221 225 225 224 226 228 226 227 232 235 234 229 230 239 244 235 223 225 229 230 230 232 229 218 211 212 210 206 202 199 202 205 204 204 203 200 200 206 204 199 197 200 204 209 207 206 207 210 213 215 218 221 223 226 227 226 233 247 256 251 248 248 248 248 252 262 271 275 276 278 280 282 284 284
Height
3043 3045 3048 3051 3054 3057 3061 3064 3068 3071 3074 3077 3080 3083 3087 3091 3094 3098 3101 3104 3108 3111 3114 3118 3121 3124 3126 3129 3130 3132 3134 3135 3137 3138 3140 3147 3152 3153 3154 3156 3159 3161 3162 3164 3166 3168 3169 3170 3172 3172 3173 3175 3176 3178 3179 3179 3180 3181 3182 3182 3183 3184 3185 3186 3187 3187 3186 3186 3186 3186 3186 3187 3187 3188 3188 3189 3189 3189 3189 3190 3190 3189 3190 3190 3190 3189 3189 3189
3039 3041 3044 3046 3050 3053 3056 3060 3064 3067 3070 3073 3077 3080 3083 3087 3090 3094 3097 3101 3104 3107 3110 3114 3117 3120 3122 3125 3127 3129 3131 3133 3134 3134 3140 3147 3149 3150 3152 3155 3157 3158 3161 3162 3164 3166 3167 3169 3170 3170 3171 3173 3175 3176 3177 3178 3179 3180 3180 3180 3181 3183 3185 3185 3186 3187 3187 3186 3186 3186 3186 3186 3187 3187 3188 3188 3188 3189 3189 3189 3189 3189 3189 3189 3189 3189 3189 3189
3035 3037 3040 3042 3046 3049 3052 3056 3060 3063 3067 3070 3073 3077 3080 3083 3087 3090 3094 3097 3100 3104 3107 3110 3113 3116 3119 3121 3124 3127 3128 3130 3129 3131 3141 3145 3145 3148 3151 3153 3155 3157 3159 3160 3162 3164 3165 3167 3168 3168 3169 3171 3173 3174 3175 3176 3177 3179 3179 3178 3180 3182 3184 3184 3185 3186 3186 3186 3185 3186 3186 3186 3186 3186 3187 3188 3188 3188 3188 3188 3188 3189 3189 3189 3189 3189 3189 3189
3031 3034 3036 3039 3041 3045 3048 3052 3055 3059 3063 3066 3070 3073 3077 3080 3083 3087 3090 3093 3097 3100 3104 3107 3110 3113 3115 3117 3121 3123 3126 3127 3124 3131 3141 3142 3143 3146 3148 3151 3153 3155 3156 3158 3159 3161 3163 3164 3165 3166 3167 3169 3171 3172 3173 3175 3176 3177 3177 3177 3179 3182 3183 3183 3183 3184 3185 3185 3185 3185 3186 3185 3185 3186 3187 3187 3187 3187 3187 3187 3188 3188 3188 3189 3189 3189 3189 3189
3028 3030 3033 3035 3037 3040 3044 3047 3051 3055 3059 3063 3066 3070 3073 3077 3080 3083 3087 3090 3093 3097 3100 3103 3106 3109 3112 3114 3118 3120 3123 3123 3120 3129 3138 3139 3141 3144 3146 3149 3150 3152 3153 3154 3156 3158 3160 3161 3163 3164 3165 3167 3169 3170 3171 3174 3175 3175 3175 3176 3178 3180 3181 3181 3181 3182 3183 3183 3183 3184 3185 3185 3184 3185 3186 3186 3187 3186 3185 3186 3186 3187 3188 3189 3189 3189 3189 3189
3024 3026 3029 3032 3034 3037 3040 3043 3047 3051 3055 3059 3063 3066 3070 3073 3077 3080 3083 3087 3090 3093 3096 3100 3103 3106 3108 3110 3114 3116 3118 3119 3118 3126 3134 3136 3139 3141 3144 3146 3147 3148 3149 3150 3153 3155 3157 3159 3161 3162 3163 3166 3168 3169 3171 3173 3173 3173 3174 3175 3176 3178 3179 3179 3180 3180 3181 3182 3182 3183 3183 3184 3184 3184 3185 3185 3186 3186 3185 3185 3185 3186 3187 3188 3188 3188 3188 3189
3020 3023 3026 3028 3031 3033 3036 3039 3043 3047 3051 3055 3059 3063 3066 3070 3074 3077 3080 3084 3087 3090 3093 3096 3100 3102 3104 3107 3110 3112 3112 3114 3118 3123 3129 3134 3137 3138 3141 3143 3145 3145 3146 3148 3150 3153 3156 3157 3159 3161 3162 3164 3166 3168 3170 3172 3172 3171 3172 3173 3175 3176 3177 3178 3178 3178 3179 3180 3181 3181 3182 3182 3183 3183 3183 3183 3185 3185 3185 3185 3184 3185 3185 3186 3187 3187 3188 3188
3016 3019 3022 3025 3027 3030 3033 3036 3039 3043 3047 3050 3055 3059 3063 3066 3070 3074 3077 3081 3084 3087 3090 3093 3096 3099 3101 3103 3106 3107 3106 3111 3117 3121 3126 3131 3134 3136 3138 3141 3142 3142 3144 3146 3148 3151 3154 3155 3157 3159 3160 3162 3164 3166 3169 3170 3169 3169 3169 3172 3173 3174 3175 3177 3176 3176 3176 3178 3179 3180 3180 3181 3181 3181 3181 3181 3183 3184 3184 3184 3184 3184 3184 3184 3185 3186 3187 3187
3013 3016 3019 3022 3024 3027 3029 3032 3035 3039 3043 3047 3051 3055 3060 3063 3067 3070 3074 3078 3081 3084 3087 3090 3093 3095 3098 3100 3103 3102 3101 3110 3117 3119 3124 3128 3130 3133 3135 3138 3139 3140 3141 3144 3146 3148 3150 3153 3156 3158 3159 3161 3163 3164 3167 3167 3166 3167 3169 3170 3171 3172 3174 3175 3175 3174 3174 3176 3176 3177 3178 3179 3180 3179 3178 3179 3182 3183 3183 3183 3183 3183 3183 3183 3183 3185 3186 3186
3009 3012 3015 3018 3021 3024 3026 3029 3032 3035 3039 3043 3047 3051 3056 3060 3064 3067 3071 3075 3078 3081 3085 3087 3090 3092 3094 3096 3098 3096 3099 3110 3114 3116 3121 3125 3127 3130 3132 3135 3136 3137 3139 3142 3144 3146 3148 3152 3154 3156 3157 3159 3160 3161 3164 3164 3164 3166 3168 3168 3169 3169 3171 3172 3172 3172 3172 3173 3174 3175 3176 3177 3178 3177 3175 3177 3180 3181 3182 3182 3182 3182 3182 3181 3182 3183 3184 3184
3005 3008 3011 3015 3018 3020 3023 3026 3029 3032 3035 3039 3043 3047 3052 3056 3061 3064 3068 3072 3075 3079 3082 3085 3087 3089 3091 3093 3093 3092 3098 3108 3110 3112 3118 3121 3125 3127 3129 3132 3133 3134 3136 3139 3142 3144 3147 3150 3152 3153 3155 3156 3157 3159 3161 3162 3162 3165 3166 3166 3166 3167 3168 3169 3170 3170 3170 3171 3172 3173 3173 3174 3175 3173 3173 3177 3179 3179 3180 3180 3180 3180 3181 3181 3181 3181 3182 3182
3001 3004 3008 3011 3014 3017 3020 3023 3026 3029 3032 3036 3039 3043 3048 3052 3057 3061 3065 3068 3072 3076 3079 3082 3085 3087 3088 3088 3087 3091 3099 3105 3106 3109 3114 3117 3121 3124 3127 3129 3130 3132 3134 3137 3140 3143 3144 3146 3149 3150 3152 3153 3154 3157 3158 3159 3161 3163 3164 3163 3163 3165 3164 3165 3168 3168 3168 3169 3170 3171 3169 3169 3171 3171 3173 3176 3177 3177 3177 3177 3178 3178 3179 3180 3179 3179 3179 3180
2998 3001 3004 3007 3010 3014 3017 3020 3024 3026 3029 3032 3036 3040 3044 3049 3053 3058 3062 3065 3069 3073 3077 3081 3083 3085 3085 3083 3085 3091 3097 3101 3102 3105 3110 3115 3117 3120 3123 3125 3128 3130 3132 3135 3138 3140 3141 3143 3146 3148 3149 3150 3152 3155 3155 3157 3159 3160 3162 3161 3161 3162 3160 3162 3166 3166 3166 3168 3169 3170 3165 3163 3168 3170 3172 3174 3174 3175 3174 3174 3175 3175 3176 3177 3177 3177 3177 3178
2995 2997 3001 3004 3007 3010 3014 3017 3020 3023 3027 3030 3033 3036 3040 3045 3050 3054 3058 3063 3067 3071 3075 3078 3080 3081 3080 3080 3083 3089 3093 3096 3098 3102 3107 3111 3114 3117 3119 3122 3126 3128 3130 3133 3135 3137 3139 3142 3144 3145 3147 3148 3150 3153 3154 3155 3157 3158 3160 3159 3159 3158 3156 3159 3164 3164 3164 3166 3167 3168 3162 3159 3165 3168 3169 3172 3172 3173 3172 3172 3173 3173 3173 3174 3175 3175 3175 3175
2991 2994 2997 3000 3004 3008 3011 3014 3017 3021 3024 3027 3030 3034 3037 3041 3045 3050 3055 3059 3064 3068 3072 3075 3076 3077 3076 3077 3080 3085 3088 3090 3094 3100 3104 3108 3111 3113 3116 3119 3123 3126 3129 3130 3132 3134 3137 3139 3141 3143 3144 3146 3149 3151 3152 3153 3154 3156 3156 3154 3155 3155 3154 3157 3161 3161 3162 3164 3165 3165 3159 3156 3162 3165 3167 3169 3169 3170 3169 3170 3170 3171 3171 3172 3172 3173 3174 3174
2988 2991 2994 2997 3000 3004 3008 3011 3014 3018 3021 3025 3028 3031 3034 3037 3041 3046 3051 3056 3061 3064 3068 3069 3070 3073 3073 3073 3077 3080 3082 3086 3092 3098 3101 3104 3107 3110 3113 3116 3119 3123 3126 3127 3129 3131 3134 3136 3138 3140 3141 3144 3147 3148 3150 3151 3151 3152 3152 3151 3153 3153 3154 3155 3157 3159 3161 3162 3162 3161 3157 3156 3160 3163 3164 3166 3166 3166 3166 3167 3167 3168 3169 3169 3170 3170 3171 3171
2985 2987 2990 2993 2997 3001 3005 3008 3011 3015 3019 3022 3025 3028 3031 3034 3038 3042 3046 3052 3057 3060 3062 3064 3068 3072 3070 3069 3073 3075 3078 3085 3090 3094 3098 3100 3103 3106 3109 3111 3115 3118 3122 3125 3127 3128 3131 3133 3134 3136 3139 3141 3144 3147 3148 3146 3145 3148 3149 3150 3151 3152 3153 3154 3154 3156 3159 3159 3159 3157 3154 3153 3157 3160 3162 3163 3163 3163 3163 3164 3165 3165 3166 3167 3167 3167 3167 3168
2982 2984 2987 2990 2994 2997 3002 3005 3008 3012 3015 3019 3023 3026 3029 3032 3035 3038 3042 3047 3053 3056 3058 3060 3065 3067 3063 3064 3069 3072 3077 3083 3087 3091 3094 3096 3099 3102 3106 3108 3111 3115 3118 3121 3123 3125 3128 3130 3131 3133 3135 3137 3139 3141 3140 3138 3141 3145 3147 3147 3149 3151 3152 3152 3153 3155 3156 3156 3156 3154 3151 3150 3154 3157 3158 3160 3161 3161 3161 3162 3162 3163 3163 3164 3164 3164 3165 3165
2979 2981 2984 2987 2990 2994 2998 3002 3005 3009 3013 3017 3020 3023 3026 3029 3032 3034 3037 3042 3045 3047 3049 3052 3056 3057 3057 3062 3067 3071 3075 3080 3083 3086 3090 3093 3096 3099 3102 3105 3107 3111 3114 3116 3118 3121 3125 3127 3128 3128 3129 3131 3133 3135 3135 3137 3142 3145 3146 3147 3148 3148 3148 3149 3152 3153 3155 3154 3152 3151 3149 3148 3151 3153 3154 3157 3158 3158 3159 3159 3159 3160 3160 3161 3161 3162 3163 3163
2976 2978 2981 2984 2987 2991 2995 2999 3002 3006 3010 3013 3015 3019 3020 3023 3026 3027 3031 3034 3037 3041 3044 3047 3051 3054 3057 3060 3064 3068 3071 3074 3077 3080 3085 3090 3093 3097 3100 3102 3105 3107 3108 3111 3114 3117 3121 3123 3122 3122 3124 3127 3131 3134 3136 3139 3143 3144 3145 3145 3145 3145 3145 3147 3150 3152 3153 3152 3148 3149 3148 3147 3149 3150 3151 3152 3154 3154 3155 3156 3157 3158 3158 3158 3159 3159 3160 3160
2973 2976 2978 2981 2985 2988 2992 2996 2999 3003 3006 3008 3011 3013 3014 3018 3021 3022 3027 3030 3034 3039 3042 3045 3049 3052 3056 3058 3061 3064 3066 3069 3073 3077 3082 3086 3090 3093 3096 3099 3101 3102 3104 3107 3110 3113 3116 3115 3115 3118 3122 3127 3130 3134 3136 3138 3140 3141 3142 3142 3142 3143 3142 3145 3149 3150 3152 3150 3147 3148 3146 3145 3146 3147 3148 3149 3149 3150 3152 3153 3154 3154 3155 3156 3156 3156 3157 3158
2970 2972 2975 2979 2982 2986 2989 2992 2996 3000 3002 3004 3007 3008 3012 3018 3020 3023 3027 3028 3030 3035 3038 3042 3045 3048 3053 3056 3058 3062 3063 3067 3071 3074 3078 3082 3086 3088 3091 3094 3096 3098 3101 3104 3106 3108 3108 3106 3109 3114 3120 3126 3129 3132 3134 3136 3137 3139 3139 3140 3139 3140 3141 3144 3146 3148 3149 3148 3145 3146 3144 3142 3144 3145 3145 3145 3145 3147 3148 3150 3150 3151 3152 3153 3153 3154 3155 3155
2967 2970 2973 2975 2979 2983 2986 2990 2993 2996 2998 3000 3002 3006 3012 3017 3020 3023 3026 3027 3029 3032 3033 3037 3041 3045 3051 3052 3054 3058 3060 3062 3067 3070 3074 3077 3080 3083 3086 3088 3092 3095 3097 3098 3100 3102 3100 3099 3104 3111 3117 3122 3125 3129 3132 3133 3134 3135 3136 3137 3136 3138 3140 3141 3143 3145 3146 3145 3143 3144 3142 3139 3141 3141 3141 3142 3142 3144 3146 3147 3148 3149 3149 3150 3151 3152 3152 3152
2964 2967 2970 2973 2977 2980 2983 2987 2989 2990 2993 2996 3000 3005 3011 3015 3018 3021 3024 3025 3025 3026 3029 3035 3039 3043 3046 3049 3052 3054 3055 3059 3063 3067 3071 3073 3076 3080 3081 3084 3089 3091 3092 3093 3096 3097 3097 3099 3103 3109 3113 3117 3121 3124 3128 3130 3130 3131 3133 3133 3133 3136 3139 3139 3141 3142 3143 3142 3141 3142 3140 3135 3136 3138 3138 3140 3141 3141 3143 3144 3145 3145 3146 3147 3148 3148 3149 3149
2961 2964 2967 2970 2974 2977 2981 2983 2983 2987 2990 2993 2998 3004 3009 3012 3016 3019 3022 3023 3021 3022 3027 3031 3035 3037 3042 3047 3049 3050 3053 3056 3060 3064 3068 3071 3073 3076 3078 3081 3085 3086 3088 3091 3094 3096 3097 3099 3102 3106 3109 3112 3116 3119 3123 3126 3127 3128 3128 3129 3131 3134 3137 3137 3138 3139 3139 3138 3139 3142 3138 3130 3131 3135 3135 3138 3139 3138 3140 3141 3142 3142 3143 3144 3144 3145 3146 3146
2959 2962 2965 2968 2971 2974 2977 2977 2979 2985 2988 2991 2996 3002 3007 3010 3014 3018 3021 3022 3018 3017 3021 3025 3028 3031 3036 3041 3044 3049 3051 3050 3055 3062 3065 3069 3072 3075 3076 3078 3081 3083 3086 3090 3094 3094 3095 3097 3100 3103 3106 3109 3112 3114 3117 3122 3124 3125 3124 3126 3129 3132 3134 3134 3135 3136 3136 3135 3136 3139 3137 3130 3128 3132 3133 3135 3136 3136 3138 3139 3139 3140 3141 3141 3141 3142 3142 3143
2956 2960 2962 2965 2969 2971 2972 2973 2978 2982 2984 2989 2995 3000 3004 3008 3013 3016 3020 3022 3014 3010 3015 3020 3023 3027 3032 3035 3039 3044 3043 3044 3053 3056 3059 3065 3069 3071 3073 3074 3076 3079 3082 3088 3090 3088 3090 3094 3096 3100 3103 3105 3106 3108 3111 3116 3120 3122 3121 3123 3127 3128 3130 3131 3132 3133 3132 3133 3134 3134 3135 3131 3125 3127 3131 3133 3134 3134 3135 3136 3136 3137 3137 3138 3138 3138 3138 3138
2954 2957 2960 2963 2965 2968 2970 2972 2976 2979 2982 2988 2993 2998 3002 3006 3011 3014 3017 3016 3007 3004 3010 3014 3019 3026 3030 3032 3035 3038 3038 3043 3049 3050 3056 3063 3064 3066 3068 3069 3072 3074 3077 3081 3082 3083 3086 3088 3090 3095 3098 3100 3101 3104 3108 3113 3117 3120 3120 3121 3123 3125 3126 3127 3128 3129 3131 3132 3130 3130 3133 3130 3121 3122 3127 3129 3130 3131 3131 3132 3133 3133 3134 3134 3135 3135 3135 3135
2951 2954 2957 2960 2963 2966 2969 2971 2975 2978 2982 2987 2992 2996 3000 3004 3009 3012 3012 3008 3000 3000 3004 3008 3015 3020 3023 3027 3031 3034 3038 3042 3044 3048 3054 3057 3058 3061 3063 3065 3070 3072 3073 3076 3079 3081 3082 3085 3090 3094 3095 3098 3101 3104 3106 3110 3114 3117 3119 3119 3120 3122 3123 3124 3125 3127 3130 3130 3125 3125 3130 3127 3118 3118 3123 3125 3126 3127 3128 3128 3129 3129 3130 3131 3132 3133 3133 3133
2949 2952 2955 2958 2960 2962 2965 2968 2972 2977 2981 2986 2990 2993 2998 3001 3004 3006 3003 2998 2996 2998 3000 3003 3008 3011 3015 3022 3026 3028 3034 3038 3041 3046 3050 3051 3054 3058 3061 3065 3068 3070 3073 3075 3079 3081 3081 3085 3090 3091 3094 3099 3102 3103 3105 3108 3111 3114 3116 3117 3118 3118 3119 3121 3122 3123 3126 3124 3119 3120 3126 3125 3119 3116 3118 3121 3121 3122 3124 3124 3125 3126 3127 3128 3129 3130 3130 3130
2946 2949 2952 2955 2956 2959 2962 2965 2969 2974 2979 2983 2986 2990 2994 2997 2998 2997 2992 2993 2996 2996 2995 2998 3002 3006 3010 3015 3018 3023 3029 3035 3038 3041 3043 3047 3050 3052 3057 3061 3064 3068 3071 3073 3076 3079 3080 3083 3084 3086 3092 3097 3100 3100 3103 3106 3109 3110 3111 3113 3115 3116 3116 3118 3119 3120 3121 3117 3115 3118 3122 3123 3119 3113 3114 3117 3118 3120 3120 3121 3122 3123 3123 3125 3126 3127 3127 3128
2943 2946 2950 2952 2954 2957 2960 2964 2969 2973 2975 2978 2982 2985 2989 2991 2989 2986 2988 2993 2995 2990 2990 2994 2996 3001 3007 3011 3014 3018 3023 3028 3032 3035 3037 3041 3043 3044 3048 3051 3055 3060 3063 3065 3071 3074 3076 3077 3079 3084 3088 3091 3094 3096 3100 3104 3106 3106 3107 3109 3113 3116 3116 3116 3115 3116 3115 3113 3113 3116 3118 3118 3114 3109 3111 3114 3115 3117 3117 3117 3118 3119 3120 3122 3123 3124 3125 3125
2940 2944 2947 2949 2952 2955 2958 2964 2969 2971 2972 2975 2978 2981 2985 2983 2978 2979 2986 2989 2988 2985 2988 2992 2994 2998 3002 3006 3010 3014 3019 3022 3026 3031 3034 3037 3039 3041 3044 3047 3050 3053 3054 3059 3065 3069 3073 3075 3076 3080 3083 3085 3088 3090 3092 3094 3096 3098 3099 3101 3106 3110 3113 3114 3113 3113 3113 3113 3112 3114 3116 3115 3110 3107 3108 3110 3111 3113 3114 3114 3115 3115 3117 3119 3121 3122 3122 3123
2938 2941 2944 2947 2950 2953 2957 2962 2965 2967 2970 2973 2975 2978 2980 2976 2975 2980 2983 2983 2985 2985 2987 2990 2993 2996 2998 3000 3004 3009 3015 3018 3022 3027 3030 3033 3035 3036 3040 3044 3047 3051 3054 3058 3061 3064 3068 3068 3068 3072 3075 3078 3080 3083 3086 3087 3089 3091 3093 3096 3099 3101 3106 3109 3109 3110 3111 3111 3112 3114 3114 3111 3107 3105 3104 3106 3108 3110 3111 3112 3112 3113 3114 3116 3117 3118 3119 3121
2935 2938 2941 2944 2946 2950 2954 2959 2962 2964 2966 2969 2972 2972 2970 2971 2974 2977 2978 2982 2986 2985 2986 2989 2992 2994 2996 2999 3003 3006 3010 3014 3019 3023 3025 3026 3028 3030 3034 3038 3042 3047 3051 3054 3056 3060 3063 3063 3063 3068 3071 3072 3074 3079 3083 3086 3089 3090 3092 3095 3095 3097 3102 3104 3105 3105 3107 3109 3110 3111 3109 3106 3104 3103 3103 3104 3106 3107 3108 3108 3109 3110 3111 3112 3113 3114 3116 3118
2931 2934 2937 2940 2943 2947 2951 2956 2959 2960 2962 2966 2968 2966 2965 2969 2972 2974 2977 2982 2984 2984 2986 2988 2988 2990 2993 2997 3001 3003 3007 3012 3015 3018 3021 3023 3026 3028 3030 3033 3037 3041 3044 3048 3051 3055 3059 3061 3062 3065 3068 3069 3072 3076 3078 3081 3084 3085 3087 3089 3091 3095 3099 3102 3103 3103 3105 3107 3105 3104 3103 3102 3102 3101 3100 3103 3103 3105 3107 3106 3105 3107 3108 3110 3111 3112 3114 3115
2925 2930 2933 2936 2940 2945 2950 2954 2956 2957 2960 2964 2963 2962 2964 2968 2971 2974 2977 2980 2981 2983 2985 2983 2982 2985 2988 2991 2995 2998 3004 3009 3011 3013 3016 3019 3021 3024 3028 3032 3035 3038 3042 3047 3049 3050 3054 3058 3059 3061 3063 3066 3070 3075 3077 3079 3080 3080 3081 3085 3090 3095 3097 3099 3101 3102 3104 3104 3099 3097 3096 3097 3099 3096 3095 3099 3100 3103 3106 3104 3103 3105 3107 3108 3109 3110 3111 3111
2921 2927 2930 2933 2938 2943 2947 2951 2953 2954 2958 2960 2960 2960 2963 2966 2970 2973 2976 2978 2980 2982 2982 2979 2978 2980 2983 2987 2989 2993 2998 3002 3005 3008 3011 3013 3015 3018 3023 3028 3032 3036 3041 3046 3048 3049 3052 3056 3057 3058 3061 3064 3068 3071 3073 3074 3075 3077 3079 3083 3087 3090 3091 3092 3095 3096 3098 3099 3095 3092 3091 3093 3094 3091 3090 3094 3096 3099 3101 3100 3100 3102 3104 3105 3106 3107 3108 3109
2919 2925 2927 2930 2936 2941 2944 2947 2950 2953 2955 2956 2956 2958 2960 2963 2967 2971 2974 2976 2978 2980 2980 2978 2977 2979 2981 2983 2986 2990 2993 2995 2998 3002 3005 3007 3009 3012 3017 3022 3027 3032 3037 3042 3045 3047 3049 3052 3054 3055 3058 3061 3063 3064 3065 3067 3070 3075 3078 3081 3081 3082 3082 3082 3084 3086 3088 3091 3090 3089 3088 3087 3085 3085 3086 3089 3092 3095 3096 3096 3098 3099 3100 3101 3102 3103 3103 3105
2916 2921 2923 2928 2935 2938 2942 2945 2948 2950 2951 2952 2954 2956 2959 2962 2965 2968 2972 2974 2975 2977 2979 2978 2978 2979 2980 2982 2984 2986 2989 2992 2995 2998 3000 3002 3005 3008 3013 3017 3021 3027 3034 3039 3041 3044 3047 3048 3050 3053 3055 3057 3056 3055 3055 3058 3062 3067 3071 3072 3073 3075 3076 3077 3080 3082 3083 3086 3087 3087 3085 3081 3079 3081 3083 3085 3087 3091 3093 3093 3094 3095 3095 3096 3097 3098 3098 3099
2914 2918 2920 2927 2933 2936 2940 2944 2945 2946 2948 2950 2952 2954 2957 2959 2962 2966 2969 2972 2973 2975 2977 2978 2978 2978 2979 2981 2982 2983 2987 2989 2992 2995 2997 2999 3002 3004 3008 3013 3017 3022 3028 3033 3035 3039 3042 3043 3046 3048 3049 3050 3049 3050 3052 3054 3057 3060 3061 3061 3064 3067 3070 3074 3078 3079 3081 3082 3083 3084 3081 3076 3076 3079 3080 3082 3085 3087 3090 3090 3090 3091 3091 3092 3093 3094 3094 3095
2912 2915 2918 2925 2930 2933 2938 2941 2942 2944 2946 2946 2949 2952 2955 2957 2960 2964 2967 2969 2971 2973 2974 2975 2975 2975 2976 2979 2979 2980 2983 2985 2988 2991 2992 2995 2997 2999 3004 3009 3013 3017 3022 3024 3028 3033 3036 3038 3041 3043 3044 3046 3048 3050 3052 3055 3057 3059 3058 3059 3062 3064 3065 3068 3071 3073 3077 3079 3079 3081 3078 3071 3073 3077 3077 3080 3082 3084 3087 3088 3088 3089 3089 3090 3091 3091 3092 3092
2910 2913 2918 2925 2928 2932 2937 2938 2940 2943 2944 2945 2948 2951 2953 2955 2958 2961 2964 2967 2969 2970 2971 2971 2972 2973 2974 2977 2979 2977 2979 2982 2984 2986 2989 2992 2994 2998 3003 3006 3008 3014 3016 3018 3022 3028 3031 3033 3037 3040 3044 3045 3047 3049 3051 3054 3056 3057 3057 3058 3060 3061 3062 3064 3066 3069 3071 3072 3074 3078 3074 3068 3070 3075 3076 3077 3079 3081 3084 3085 3086 3087 3087 3087 3088 3088 3089 3089
2908 2913 2918 2924 2927 2931 2934 2934 2936 2939 2940 2943 2947 2949 2951 2952 2955 2957 2960 2964 2965 2967 2968 2968 2969 2972 2973 2976 2977 2975 2976 2979 2981 2983 2987 2989 2992 2997 3001 3003 3005 3008 3010 3011 3015 3020 3024 3026 3030 3036 3041 3043 3045 3047 3048 3050 3050 3049 3050 3053 3054 3057 3061 3063 3065 3066 3065 3066 3068 3070 3069 3066 3068 3072 3073 3072 3074 3078 3080 3082 3082 3082 3083 3084 3084 3085 3085 3085
2906 2912 2917 2921 2925 2927 2929 2931 2933 2936 2937 2940 2943 2946 2948 2949 2952 2954 2958 2961 2963 2964 2965 2965 2967 2971 2972 2974 2974 2973 2974 2975 2977 2981 2984 2986 2990 2994 2997 3000 3002 3003 3006 3011 3014 3016 3019 3021 3022 3025 3028 3031 3032 3031 3031 3034 3037 3039 3041 3045 3047 3051 3053 3055 3058 3059 3060 3062 3063 3063 3064 3065 3067 3068 3068 3068 3070 3073 3075 3077 3077 3078 3079 3080 3080 3081 3081 3081
2904 2909 2914 2919 2922 2925 2927 2930 2933 2934 2936 2938 2941 2943 2945 2947 2949 2952 2955 2958 2960 2961 2963 2964 2966 2969 2970 2971 2972 2971 2971 2972 2974 2977 2979 2983 2987 2989 2992 2997 2999 3001 3005 3009 3011 3014 3016 3016 3016 3017 3017 3018 3018 3018 3019 3023 3027 3030 3033 3037 3041 3044 3047 3050 3052 3053 3055 3058 3059 3059 3062 3064 3063 3064 3065 3065 3068 3070 3071 3072 3073 3073 3074 3075 3076 3077 3077 3077
2904 2908 2911 2914 2919 2923 2926 2928 2931 2932 2934 2936 2938 2940 2942 2944 2946 2949 2952 2954 2956 2959 2960 2961 2963 2965 2966 2968 2969 2968 2968 2970 2971 2973 2975 2979 2983 2986 2990 2993 2996 2999 3003 3005 3007 3009 3010 3010 3012 3014 3015 3016 3018 3019 3020 3021 3022 3024 3026 3030 3034 3039 3044 3047 3047 3048 3051 3055 3055 3056 3059 3060 3059 3059 3061 3063 3065 3067 3068 3069 3070 3071 3071 3071 3072 3073 3074 3074
2905 2909 2911 2914 2916 2918 2920 2922 2925 2928 2931 2933 2935 2937 2939 2941 2943 2945 2948 2951 2953 2956 2957 2957 2958 2960 2961 2965 2968 2966 2964 2966 2968 2970 2972 2976 2980 2983 2986 2989 2991 2994 2997 3000 3002 3005 3006 3007 3009 3011 3013 3015 3017 3018 3018 3019 3020 3021 3022 3024 3028 3034 3038 3040 3041 3044 3047 3049 3050 3052 3055 3054 3054 3055 3058 3060 3061 3062 3064 3066 3067 3067 3066 3067 3068 3069 3069 3070
2904 2908 2911 2915 2916 2916 2917 2919 2922 2925 2927 2930 2932 2934 2935 2938 2940 2942 2945 2948 2949 2951 2953 2953 2953 2957 2959 2962 2965 2963 2960 2961 2964 2966 2970 2973 2976 2979 2981 2983 2984 2987 2991 2994 2997 3000 3003 3004 3006 3009 3011 3012 3014 3015 3016 3017 3017 3019 3020 3022 3025 3029 3032 3035 3037 3041 3044 3045 3046 3048 3050 3049 3049 3052 3054 3056 3056 3056 3059 3061 3061 3061 3061 3062 3064 3064 3065 3065
2904 2906 2908 2912 2914 2915 2918 2920 2922 2925 2927 2929 2930 2930 2932 2934 2936 2939 2942 2943 2944 2947 2949 2949 2950 2954 2957 2959 2961 2958 2955 2958 2960 2962 2967 2971 2973 2974 2976 2978 2978 2981 2986 2989 2991 2995 2998 2999 3001 3006 3009 3010 3012 3013 3013 3013 3014 3015 3017 3020 3023 3027 3030 3033 3035 3038 3040 3041 3042 3044 3045 3044 3045 3048 3049 3051 3052 3052 3053 3053 3054 3055 3057 3058 3060 3060 3060 3060
2903 2905 2907 2909 2911 2913 2916 2918 2920 2922 2924 2926 2926 2927 2929 2930 2932 2936 2939 2940 2942 2944 2946 2946 2949 2953 2955 2956 2956 2954 2955 2958 2960 2962 2966 2969 2971 2972 2973 2974 2975 2977 2980 2984 2987 2990 2992 2995 2997 3001 3005 3006 3009 3011 3011 3011 3013 3014 3014 3017 3021 3024 3026 3028 3029 3031 3032 3033 3036 3039 3039 3038 3040 3042 3044 3046 3047 3047 3047 3048 3050 3052 3053 3054 3055 3055 3055 3055
2903 2905 2908 2910 2911 2913 2915 2917 2919 2920 2919 2920 2921 2924 2926 2927 2930 2934 2936 2937 2939 2942 2944 2945 2948 2951 2952 2952 2952 2953 2956 2959 2960 2962 2966 2967 2968 2970 2971 2972 2973 2975 2976 2978 2982 2986 2988 2990 2992 2996 2999 3002 3005 3007 3009 3010 3011 3009 3009 3013 3016 3018 3021 3022 3023 3024 3026 3028 3030 3031 3032 3033 3035 3038 3040 3042 3043 3043 3045 3046 3047 3048 3050 3050 3050 3050 3050 3049